METOP-SGA1 (65159 NORAD) Tracking and Keplerian Element Data

This shows tracking and keplerian element data for the satellite.

Feedback or suggestion? Click here.




ElementValue
Catalog65159
NameMETOP-SGA1
Epoch Orbit1834
Epoch Day354.08953397
Epoch Year2025
RAAN51.8354
Inclination98.6913
Eccentricity0.0001306
Argument of Perigee73.482
Mean Anonmoly286.6501
Mean Motion14.21590976
Decay Rate5.5E-07
L11 65159U 25172A 25354.08953397 .00000055 00000+0 44818-4 0 9994
L22 65159 98.6913 51.8354 0001306 73.4820 286.6501 14.21590976 18342



Live tracking and technical data element details for METOP-SGA1 (NORAD 65159). METOP-SGA1 can be tracked NOW for your location showing map with azimuth and elevation plus other details from your city location.







IsCatalogInMostPopularTable: catalog: 65159, numindb: 6
Update: records affected: 1



GetName: 65159 METOP-SGA1

Hit Count: updated at: Wed, 15 Apr 2026 01:04:07 GMT